Location: Misciano
(43.5000°N, 11.9500°E)
Time: 23:47:12
(UTC+00:00)

MOS 1 Rocket - Pass Details

Date: 13 August 2020
Orbit: 614 x 830 km, 97.4° (Epoch: 23 September)

Event Time Altitude Azimuth Distance (km) Brightness Sun altitude
Rises 19:01:33 0° 8° (N) 3,384 7.1 -8.0°
Reaches altitude 10° 19:03:59 10° 5° (N) 2,440 6.4 -8.4°
Maximum altitude 19:09:18 58° 287° (WNW) 946 4.4 -9.2°
Drops below altitude 10° 19:14:26 10° 210° (SSW) 2,348 6.0 -10.0°
Sets 19:16:43 0° 206° (SSW) 3,244 6.7 -10.4°
